Kirksville, MO

4:53 PM CST on November 24, 2017 (GMT -0600)
Kirksville Regional

Weather History for KIRK - October, 2015

Change the Weather History Date:

Wednesday, October 14, 2015

  Actual Average Record
Temperature  
Mean Temperature 55 °F 54 °F  
Max Temperature 71 °F 65 °F 89 °F (1938)
Min Temperature 38 °F 43 °F 24 °F (1937)
Degree Days  
Heating Degree Days 10 11  
Month to date heating degree days 102 135  
Since 1 July heating degree days 155 242  
Cooling Degree Days 0 0  
Month to date cooling degree days 9 10  
Year to date cooling degree days 1093 937  
Growing Degree Days 4 (Base 50)    
Moisture  
Dew Point 37 °F    
Average Humidity 58    
Maximum Humidity 89    
Minimum Humidity 26    
Precipitation  
Precipitation 0.00 in 0.11 in 2.01 in (1981)
Month to date precipitation T 1.53  
Year to date precipitation 32.83 33.05  
Sea Level Pressure  
Sea Level Pressure 30.05 in    
Wind  
Wind Speed 4 mph (NNE)    
Max Wind Speed 14 mph    
Max Gust Speed 21 mph    
Visibility 10 miles    
Events      
T = Trace of Precipitation, MM = Missing Value Source: NWS Daily Summary

Daily Weather History Graph

Daily Weather History Graph

Search for Another Location

Airport or City:

Trip Planner

Search our weather history database for the weather conditions in past years. The results will help you decide how hot, cold, wet, or windy it might be!

Date:

Astronomy

Oct. 14, 2015 Rise Set
Actual Time 7:19 AM CDT 6:32 PM CDT
Civil Twilight 6:52 AM CDT 6:59 PM CDT
Nautical Twilight 6:20 AM CDT 7:30 PM CDT
Astronomical Twilight 5:49 AM CDT 8:02 PM CDT
Moon 8:44 AM CDT (10/14) 7:42 PM CDT (10/14)
Length of Visible Light 12h 07m
Length of Day
11h 12m
Waxing Crescent, 3% of the Moon is Illuminated
Oct 14
Waxing Crescent
Oct 20
First Quarter
Oct 27
Full
Nov 3
Last Quarter
Nov 11
New

Hourly Weather History & Observations

Time (CDT) Temp. Windchill Dew Point Humidity Pressure Visibility Wind Dir Wind Speed Gust Speed Precip Events Conditions
12:55 AM 44.1 °F - 37.9 °F 79% 29.93 in 10.0 mi Calm Calm - N/A   Clear
1:55 AM 44.1 °F - 37.9 °F 79% 29.93 in 10.0 mi Calm Calm - N/A   Clear
2:55 AM 44.1 °F 42.5 °F 37.9 °F 79% 29.92 in 10.0 mi SSE 3.5 mph - N/A   Clear
3:55 AM 41.0 °F 37.1 °F 36.0 °F 82% 29.92 in 10.0 mi NE 5.8 mph - N/A   Clear
4:55 AM 42.1 °F 40.2 °F 39.0 °F 89% 29.94 in 10.0 mi North 3.5 mph - N/A   Clear
5:55 AM 39.0 °F - 36.0 °F 89% 29.97 in 10.0 mi Calm Calm - N/A   Clear
6:55 AM 39.0 °F - 35.1 °F 86% 29.99 in 10.0 mi Calm Calm - N/A   Clear
7:55 AM 45.0 °F 40.6 °F 39.0 °F 80% 30.03 in 10.0 mi NNE 8.1 mph - N/A   Clear
8:55 AM 51.1 °F - 39.9 °F 66% 30.07 in 10.0 mi NNE 9.2 mph - N/A   Clear
9:55 AM 57.9 °F - 39.0 °F 49% 30.09 in 10.0 mi ENE 8.1 mph - N/A   Clear
10:55 AM 63.0 °F - 37.0 °F 38% 30.11 in 10.0 mi Variable 5.8 mph - N/A   Clear
11:55 AM 66.0 °F - 36.0 °F 33% 30.13 in 10.0 mi NNE 8.1 mph - N/A   Clear
12:55 PM 66.9 °F - 35.1 °F 31% 30.13 in 10.0 mi North 10.4 mph - N/A   Clear
1:55 PM 69.1 °F - 34.0 °F 27% 30.11 in 10.0 mi North 10.4 mph - N/A   Clear
2:55 PM 69.1 °F - 35.1 °F 29% 30.09 in 10.0 mi WNW 5.8 mph - N/A   Clear
3:55 PM 70.0 °F - 34.0 °F 27% 30.07 in 10.0 mi North 8.1 mph - N/A   Clear
4:55 PM 69.1 °F - 34.0 °F 27% 30.07 in 10.0 mi Variable 5.8 mph - N/A   Clear
5:55 PM 64.9 °F - 36.0 °F 34% 30.07 in 10.0 mi NNE 4.6 mph - N/A   Clear
6:55 PM 55.0 °F - 37.9 °F 53% 30.09 in 10.0 mi North 3.5 mph - N/A   Clear
7:55 PM 48.9 °F - 39.0 °F 69% 30.10 in 10.0 mi Calm Calm - N/A   Clear
8:55 PM 46.0 °F - 39.0 °F 76% 30.11 in 9.0 mi Calm Calm - N/A   Clear
9:55 PM 46.0 °F 44.8 °F 39.9 °F 79% 30.11 in 10.0 mi SSW 3.5 mph - N/A   Clear
10:55 PM 45.0 °F - 39.0 °F 80% 30.12 in 5.0 mi Calm Calm - N/A   Haze
11:55 PM 44.1 °F - 39.0 °F 82% 30.12 in 10.0 mi Calm Calm - N/A   Clear